MSR788 EDDM-HECA

Flight info

Callsign MSR788
Flight time 3h 17m
Altitude 37000
Route VAVOR3Q VAVOR M867 RADIZ DCT LUMUS DCT KOTOR DCT TUPUS DCT MAVAR DCT BITLA DCT KPC UN139 KUMBI L612 BLT A16 CVO
Aircraft A21N/M-SDE2E3FGHIRWXY/LB1

Departure

Time 2026-05-04 15:32
Airport Munich Airport (EDDM)

Arrival

Time 2026-05-04 18:49
Airport Cairo International Airport (HECA)
Time Latitude Longitude Altitude Speed Heading
2026-05-04 14:55 48.35016 11.79379 1475 ft 0 kts 263°
2026-05-04 15:17 48.35017 11.79400 1475 ft 4 kts 263°
2026-05-04 15:18 48.35021 11.79441 1477 ft 4 kts 263°
2026-05-04 15:18 48.35023 11.79473 1478 ft 4 kts 260°
2026-05-04 15:18 48.35032 11.79508 1475 ft 4 kts 224°
2026-05-04 15:19 48.35077 11.79519 1483 ft 3 kts 173°
2026-05-04 15:19 48.35081 11.79519 1482 ft 1 kts 173°
2026-05-04 15:22 48.35080 11.79519 1482 ft 1 kts 173°
2026-05-04 15:23 48.35057 11.79523 1475 ft 5 kts 172°
2026-05-04 15:23 48.35016 11.79532 1485 ft 7 kts 173°
2026-05-04 15:23 48.34961 11.79541 1483 ft 9 kts 173°
2026-05-04 15:23 48.34897 11.79550 1485 ft 10 kts 174°
2026-05-04 15:24 48.34788 11.79513 1485 ft 13 kts 255°
2026-05-04 15:24 48.34762 11.79179 1491 ft 17 kts 263°
2026-05-04 15:25 48.34748 11.78993 1491 ft 19 kts 264°
2026-05-04 15:25 48.34733 11.78795 1491 ft 19 kts 263°
2026-05-04 15:25 48.34716 11.78591 1489 ft 20 kts 262°
2026-05-04 15:26 48.34688 11.78220 1491 ft 16 kts 264°
2026-05-04 15:26 48.34675 11.78051 1491 ft 17 kts 265°
2026-05-04 15:26 48.34649 11.77689 1488 ft 18 kts 264°
2026-05-04 15:27 48.34633 11.77496 1487 ft 19 kts 263°
2026-05-04 15:27 48.34601 11.77086 1491 ft 20 kts 264°
2026-05-04 15:28 48.34570 11.76645 1491 ft 22 kts 261°
2026-05-04 15:28 48.34547 11.76410 1481 ft 23 kts 262°
2026-05-04 15:28 48.34513 11.75943 1487 ft 21 kts 264°
2026-05-04 15:29 48.34497 11.75719 1491 ft 22 kts 263°
2026-05-04 15:30 48.34376 11.75066 1486 ft 10 kts 173°
2026-05-04 15:30 48.34107 11.75118 1489 ft 15 kts 149°
2026-05-04 15:31 48.34098 11.75486 1491 ft 39 kts 84°
2026-05-04 15:31 48.34157 11.76262 1491 ft 108 kts 83°
2026-05-04 15:32 48.34483 11.81262 2366 ft 176 kts 85°
2026-05-04 15:32 48.34772 11.85031 3453 ft 189 kts 83°
2026-05-04 15:33 48.35112 11.89389 4568 ft 234 kts 83°
2026-05-04 15:34 48.34492 11.96836 6613 ft 251 kts 133°
2026-05-04 15:34 48.33177 11.98568 6846 ft 253 kts 143°
2026-05-04 15:34 48.30351 12.01697 6941 ft 252 kts 148°
2026-05-04 15:35 48.26837 12.03651 8135 ft 278 kts 168°
2026-05-04 15:35 48.24947 12.04293 9134 ft 279 kts 169°
2026-05-04 15:35 48.23051 12.04942 10126 ft 280 kts 169°
2026-05-04 15:36 48.19225 12.06282 11892 ft 285 kts 169°
2026-05-04 15:36 48.17282 12.06971 12756 ft 289 kts 169°
2026-05-04 15:36 48.15312 12.07671 13621 ft 292 kts 169°
2026-05-04 15:37 48.13351 12.08367 14321 ft 295 kts 169°
2026-05-04 15:37 48.11334 12.09080 15046 ft 300 kts 169°
2026-05-04 15:37 48.09288 12.09807 15795 ft 303 kts 169°
2026-05-04 15:37 48.07258 12.10530 16571 ft 306 kts 169°
2026-05-04 15:38 48.05168 12.11277 17331 ft 310 kts 169°
2026-05-04 15:38 48.03058 12.12028 18082 ft 314 kts 169°
2026-05-04 15:38 48.00919 12.12789 18738 ft 318 kts 169°
2026-05-04 15:38 47.98752 12.13556 19353 ft 322 kts 169°
2026-05-04 15:39 47.96557 12.14331 19970 ft 327 kts 169°
2026-05-04 15:39 47.94339 12.15165 20593 ft 332 kts 164°
2026-05-04 15:39 47.90371 12.19049 21420 ft 359 kts 142°
2026-05-04 15:40 47.88494 12.21477 21670 ft 373 kts 141°
2026-05-04 15:40 47.86486 12.24065 21901 ft 388 kts 142°
2026-05-04 15:40 47.84400 12.26721 22117 ft 401 kts 142°
2026-05-04 15:40 47.82233 12.29455 22324 ft 414 kts 142°
2026-05-04 15:41 47.80003 12.32259 22686 ft 422 kts 142°
2026-05-04 15:41 47.77749 12.35089 23194 ft 426 kts 142°
2026-05-04 15:41 47.75473 12.37936 23677 ft 430 kts 142°
2026-05-04 15:41 47.73177 12.40803 24128 ft 433 kts 142°
2026-05-04 15:42 47.70856 12.43691 24611 ft 435 kts 142°
2026-05-04 15:42 47.68521 12.46568 25065 ft 437 kts 142°
2026-05-04 15:42 47.66174 12.49459 25517 ft 440 kts 142°
2026-05-04 15:42 47.63817 12.52371 25957 ft 442 kts 142°
2026-05-04 15:43 47.61568 12.55503 26396 ft 446 kts 136°
2026-05-04 15:43 47.59439 12.58862 26826 ft 449 kts 135°
2026-05-04 15:43 47.57306 12.62275 27226 ft 452 kts 135°
2026-05-04 15:43 47.55173 12.65719 27602 ft 455 kts 134°
2026-05-04 15:44 47.53034 12.69183 27974 ft 458 kts 134°
2026-05-04 15:44 47.50869 12.72667 28380 ft 460 kts 135°
2026-05-04 15:44 47.48695 12.76150 28772 ft 462 kts 135°
2026-05-04 15:44 47.46504 12.79644 29202 ft 463 kts 135°
2026-05-04 15:45 47.44320 12.83127 29734 ft 461 kts 135°
2026-05-04 15:45 47.42144 12.86588 30189 ft 460 kts 135°
2026-05-04 15:45 47.39970 12.90049 30631 ft 459 kts 135°
2026-05-04 15:45 47.37795 12.93507 31035 ft 458 kts 135°
2026-05-04 15:46 47.35620 12.96941 31446 ft 457 kts 135°
2026-05-04 15:46 47.33457 13.00370 31817 ft 457 kts 135°
2026-05-04 15:46 47.31405 13.03613 32162 ft 456 kts 135°
2026-05-04 15:46 47.29245 13.07026 32596 ft 455 kts 135°
2026-05-04 15:47 47.27113 13.10393 33000 ft 454 kts 135°
2026-05-04 15:47 47.24932 13.13822 33400 ft 452 kts 135°
2026-05-04 15:47 47.22814 13.17153 33803 ft 451 kts 135°
2026-05-04 15:47 47.20677 13.20508 34137 ft 449 kts 135°
2026-05-04 15:48 47.18540 13.23861 34411 ft 449 kts 135°
2026-05-04 15:48 47.16397 13.27223 34650 ft 450 kts 135°
2026-05-04 15:48 47.12112 13.33921 35133 ft 450 kts 135°
2026-05-04 15:49 47.09942 13.37316 35391 ft 450 kts 135°
2026-05-04 15:49 47.07826 13.40621 35631 ft 450 kts 135°
2026-05-04 15:49 47.05677 13.43972 35843 ft 450 kts 135°
2026-05-04 15:49 47.03529 13.47308 36052 ft 450 kts 136°
2026-05-04 15:50 47.01378 13.50637 36256 ft 451 kts 136°
2026-05-04 15:50 46.99226 13.53974 36469 ft 450 kts 136°
2026-05-04 15:50 46.97069 13.57318 36666 ft 451 kts 136°
2026-05-04 15:50 46.94912 13.60638 36845 ft 451 kts 136°
2026-05-04 15:51 46.92740 13.63957 37030 ft 452 kts 136°
2026-05-04 15:51 46.91269 13.66211 37073 ft 453 kts 136°
2026-05-04 15:51 46.86939 13.72892 37047 ft 453 kts 136°
2026-05-04 15:52 46.82594 13.79573 37044 ft 452 kts 136°
2026-05-04 15:52 46.78251 13.86209 37036 ft 452 kts 136°
2026-05-04 15:53 46.73907 13.92839 37026 ft 452 kts 136°
2026-05-04 15:53 46.69551 13.99481 37018 ft 453 kts 135°
2026-05-04 15:54 46.65209 14.06151 37029 ft 453 kts 135°
2026-05-04 15:54 46.60861 14.12785 37026 ft 453 kts 136°
2026-05-04 15:55 46.56320 14.19033 37026 ft 452 kts 141°
2026-05-04 15:55 46.51573 14.25007 37021 ft 452 kts 141°
2026-05-04 15:56 46.46796 14.31033 37030 ft 454 kts 141°
2026-05-04 15:56 46.42014 14.37056 37033 ft 453 kts 141°
2026-05-04 15:57 46.37280 14.42998 37046 ft 453 kts 141°
2026-05-04 15:57 46.32495 14.48947 37047 ft 455 kts 141°
2026-05-04 15:58 46.27719 14.54900 37052 ft 454 kts 141°
2026-05-04 15:58 46.22908 14.60938 37052 ft 459 kts 141°
2026-05-04 15:59 46.18114 14.66929 37051 ft 454 kts 141°
2026-05-04 15:59 46.13324 14.72864 37052 ft 454 kts 141°
2026-05-04 16:00 46.08528 14.78805 37049 ft 455 kts 141°
2026-05-04 16:00 46.03714 14.84742 37050 ft 456 kts 141°
2026-05-04 16:01 45.98884 14.90686 37047 ft 457 kts 141°
2026-05-04 16:01 45.94068 14.96613 37046 ft 456 kts 141°
2026-05-04 16:02 45.89245 15.02527 37040 ft 456 kts 141°
2026-05-04 16:03 45.82003 15.11373 37024 ft 456 kts 141°
2026-05-04 16:03 45.77139 15.17303 37027 ft 460 kts 141°
2026-05-04 16:04 45.72276 15.23223 37018 ft 459 kts 141°
2026-05-04 16:04 45.64976 15.32065 37032 ft 458 kts 142°
2026-05-04 16:05 45.60128 15.37913 37038 ft 459 kts 142°
2026-05-04 16:06 45.52802 15.46749 37034 ft 459 kts 142°
2026-05-04 16:07 45.43140 15.58596 37038 ft 459 kts 136°
2026-05-04 16:08 45.34180 15.71538 37039 ft 462 kts 136°
2026-05-04 16:09 45.22899 15.87775 37041 ft 461 kts 136°
2026-05-04 16:10 45.13843 16.00664 37051 ft 463 kts 136°
2026-05-04 16:11 45.04732 16.13555 37039 ft 463 kts 136°
2026-05-04 16:12 44.91038 16.32822 37048 ft 464 kts 136°
2026-05-04 16:13 44.81869 16.45658 37047 ft 464 kts 136°
2026-05-04 16:14 44.72676 16.58439 37054 ft 466 kts 136°
2026-05-04 16:16 44.61155 16.74408 37069 ft 466 kts 136°
2026-05-04 16:17 44.49748 16.90119 37063 ft 466 kts 136°
2026-05-04 16:18 44.40482 17.02803 37065 ft 466 kts 136°
2026-05-04 16:19 44.28895 17.18595 37064 ft 465 kts 135°
2026-05-04 16:20 44.17269 17.34332 37068 ft 466 kts 135°
2026-05-04 16:22 44.05607 17.50045 37061 ft 467 kts 135°
2026-05-04 16:23 43.91557 17.68836 37065 ft 469 kts 135°
2026-05-04 16:25 43.77404 17.87626 37065 ft 468 kts 135°
2026-05-04 16:26 43.60895 18.09432 37076 ft 469 kts 136°
2026-05-04 16:28 43.49042 18.24957 37092 ft 471 kts 136°
2026-05-04 16:29 43.32414 18.46590 37088 ft 470 kts 136°
2026-05-04 16:31 43.20484 18.61981 37093 ft 471 kts 136°
2026-05-04 16:32 43.06161 18.80388 37100 ft 469 kts 136°
2026-05-04 16:33 43.01428 18.86432 37076 ft 458 kts 136°
2026-05-04 16:33 42.97543 18.91392 37078 ft 455 kts 136°
2026-05-04 16:34 42.90604 19.00245 37089 ft 455 kts 136°
2026-05-04 16:35 42.76703 19.17845 37092 ft 454 kts 136°
2026-05-04 16:36 42.69745 19.26614 37095 ft 455 kts 136°
2026-05-04 16:37 42.62783 19.35362 37090 ft 454 kts 136°
2026-05-04 16:38 42.53491 19.46994 37109 ft 455 kts 136°
2026-05-04 16:39 42.41830 19.61526 37102 ft 456 kts 136°
2026-05-04 16:40 42.32462 19.73146 37089 ft 456 kts 136°
2026-05-04 16:41 42.20722 19.87612 37119 ft 456 kts 136°
2026-05-04 16:43 42.09007 20.02003 37126 ft 456 kts 136°
2026-05-04 16:43 42.01960 20.10631 37129 ft 458 kts 136°
2026-05-04 16:45 41.87767 20.27882 37141 ft 458 kts 136°
2026-05-04 16:46 41.75933 20.42200 37137 ft 459 kts 137°
2026-05-04 16:47 41.66429 20.53567 37140 ft 458 kts 139°
2026-05-04 16:48 41.56431 20.64151 37135 ft 459 kts 140°
2026-05-04 16:49 41.46420 20.74691 37136 ft 461 kts 140°
2026-05-04 16:50 41.36331 20.85270 37138 ft 463 kts 140°
2026-05-04 16:51 41.28696 20.93236 37132 ft 463 kts 140°
2026-05-04 16:52 41.18547 21.03801 37131 ft 465 kts 140°
2026-05-04 16:53 41.10898 21.11727 37126 ft 465 kts 140°
2026-05-04 16:54 41.00652 21.22321 37120 ft 466 kts 140°
2026-05-04 16:55 40.85415 21.38296 37104 ft 466 kts 136°
2026-05-04 16:56 40.73299 21.52529 37108 ft 466 kts 136°
2026-05-04 16:57 40.66011 21.61044 37101 ft 467 kts 136°
2026-05-04 16:58 40.56287 21.72370 37109 ft 466 kts 136°
2026-05-04 17:00 40.41677 21.89298 37132 ft 467 kts 137°
2026-05-04 17:01 40.29471 22.03367 37139 ft 467 kts 137°
2026-05-04 17:02 40.19694 22.14581 37150 ft 468 kts 137°
2026-05-04 17:03 40.12341 22.22981 37112 ft 468 kts 137°
2026-05-04 17:03 40.04981 22.31370 37110 ft 468 kts 137°
2026-05-04 17:04 39.95151 22.42529 37099 ft 469 kts 137°
2026-05-04 17:05 39.85307 22.53668 37100 ft 468 kts 137°
2026-05-04 17:06 39.77918 22.61998 37095 ft 469 kts 137°
2026-05-04 17:07 39.71360 22.69368 37088 ft 467 kts 138°
2026-05-04 17:07 39.65580 22.75855 37097 ft 470 kts 138°
2026-05-04 17:08 39.58163 22.84148 37106 ft 469 kts 138°
2026-05-04 17:09 39.53217 22.89666 37105 ft 469 kts 138°
2026-05-04 17:09 39.48269 22.95175 37104 ft 469 kts 138°
2026-05-04 17:10 39.35857 23.08949 37110 ft 472 kts 138°
2026-05-04 17:11 39.31716 23.13531 37127 ft 470 kts 138°
2026-05-04 17:12 39.24247 23.21752 37116 ft 470 kts 139°
2026-05-04 17:13 39.11792 23.35462 37119 ft 474 kts 138°
2026-05-04 17:14 39.01748 23.46463 37106 ft 468 kts 139°
2026-05-04 17:15 38.94298 23.54588 37112 ft 468 kts 139°
2026-05-04 17:16 38.84328 23.65431 37129 ft 473 kts 139°
2026-05-04 17:17 38.74264 23.76313 37144 ft 472 kts 139°
2026-05-04 17:18 38.64302 23.87062 37134 ft 468 kts 139°
2026-05-04 17:19 38.54321 23.97816 37134 ft 471 kts 139°
2026-05-04 17:20 38.44281 24.08562 37135 ft 469 kts 139°
2026-05-04 17:20 38.36815 24.16535 37123 ft 466 kts 139°
2026-05-04 17:21 38.26817 24.27176 37126 ft 471 kts 139°
2026-05-04 17:22 38.21787 24.32512 37128 ft 471 kts 139°
2026-05-04 17:23 38.11735 24.43147 37130 ft 466 kts 139°
2026-05-04 17:24 38.04242 24.51039 37117 ft 467 kts 139°
2026-05-04 17:25 37.94253 24.61538 37132 ft 467 kts 139°
2026-05-04 17:26 37.84238 24.72021 37128 ft 467 kts 139°
2026-05-04 17:27 37.71697 24.85109 37133 ft 471 kts 140°
2026-05-04 17:28 37.61582 24.95624 37136 ft 471 kts 140°
2026-05-04 17:29 37.46429 25.11293 37143 ft 470 kts 140°
2026-05-04 17:31 37.33755 25.24342 37136 ft 471 kts 140°
2026-05-04 17:32 37.21065 25.37341 37123 ft 469 kts 140°
2026-05-04 17:33 37.10903 25.47712 37115 ft 472 kts 140°
2026-05-04 17:34 37.00722 25.58064 37110 ft 471 kts 140°
2026-05-04 17:35 36.87970 25.70973 37103 ft 473 kts 141°
2026-05-04 17:36 36.82855 25.76139 37116 ft 473 kts 141°
2026-05-04 17:36 36.77736 25.81300 37105 ft 473 kts 141°
2026-05-04 17:37 36.72610 25.86457 37108 ft 473 kts 141°
2026-05-04 17:37 36.67515 25.91570 37110 ft 473 kts 141°
2026-05-04 17:38 36.62384 25.96703 37111 ft 473 kts 141°
2026-05-04 17:38 36.57235 26.01839 37110 ft 475 kts 141°
2026-05-04 17:39 36.49474 26.09600 37104 ft 475 kts 141°
2026-05-04 17:39 36.44324 26.14745 37108 ft 475 kts 141°
2026-05-04 17:40 36.39158 26.19877 37099 ft 475 kts 141°
2026-05-04 17:40 36.33995 26.24991 37109 ft 475 kts 141°
2026-05-04 17:41 36.28817 26.30129 37096 ft 477 kts 142°
2026-05-04 17:41 36.23628 26.35269 37097 ft 478 kts 142°
2026-05-04 17:42 36.18431 26.40398 37096 ft 477 kts 142°
2026-05-04 17:42 36.13240 26.45517 37097 ft 478 kts 142°
2026-05-04 17:43 36.08042 26.50636 37091 ft 477 kts 142°
2026-05-04 17:43 36.02842 26.55744 37069 ft 479 kts 142°
2026-05-04 17:44 35.97599 26.60883 37097 ft 480 kts 142°
2026-05-04 17:44 35.92363 26.66008 37095 ft 480 kts 143°
2026-05-04 17:45 35.87132 26.71121 37091 ft 480 kts 143°
2026-05-04 17:45 35.81888 26.76235 37093 ft 480 kts 143°
2026-05-04 17:46 35.76652 26.81334 37087 ft 480 kts 143°
2026-05-04 17:46 35.71434 26.86409 37087 ft 482 kts 143°
2026-05-04 17:47 35.66139 26.91546 37083 ft 481 kts 143°
2026-05-04 17:47 35.60914 26.96607 37074 ft 481 kts 144°
2026-05-04 17:48 35.55619 27.01727 37065 ft 481 kts 144°
2026-05-04 17:48 35.50389 27.06777 37049 ft 481 kts 144°
2026-05-04 17:49 35.45093 27.11884 37060 ft 481 kts 144°
2026-05-04 17:49 35.39817 27.16964 37051 ft 483 kts 144°
2026-05-04 17:50 35.35431 27.21201 37071 ft 483 kts 144°
2026-05-04 17:50 35.30152 27.26294 37073 ft 483 kts 144°
2026-05-04 17:51 35.24876 27.31374 37076 ft 483 kts 144°
2026-05-04 17:51 35.19593 27.36450 37074 ft 483 kts 144°
2026-05-04 17:52 35.14306 27.41521 37075 ft 483 kts 144°
2026-05-04 17:52 35.09019 27.46582 37076 ft 483 kts 144°
2026-05-04 17:53 35.03735 27.51630 37072 ft 482 kts 145°
2026-05-04 17:53 34.98446 27.56662 37065 ft 482 kts 145°
2026-05-04 17:54 34.93150 27.61684 37059 ft 482 kts 145°
2026-05-04 17:54 34.87855 27.66702 37071 ft 482 kts 145°
2026-05-04 17:55 34.82536 27.71733 37053 ft 486 kts 145°
2026-05-04 17:55 34.77196 27.76776 37065 ft 486 kts 145°
2026-05-04 17:56 34.71852 27.81817 37069 ft 486 kts 145°
2026-05-04 17:56 34.66500 27.86851 37064 ft 486 kts 145°
2026-05-04 17:57 34.61156 27.91872 37073 ft 486 kts 145°
2026-05-04 17:57 34.55803 27.96894 37042 ft 487 kts 146°
2026-05-04 17:58 34.50436 28.01920 37070 ft 488 kts 146°
2026-05-04 17:58 34.45055 28.06950 37082 ft 488 kts 146°
2026-05-04 17:59 34.39698 28.11953 37073 ft 486 kts 146°
2026-05-04 18:00 34.31650 28.19448 37075 ft 487 kts 146°
2026-05-04 18:00 34.26284 28.24438 37050 ft 487 kts 146°
2026-05-04 18:01 34.20904 28.29431 37074 ft 488 kts 147°
2026-05-04 18:01 34.15510 28.34424 37072 ft 488 kts 147°
2026-05-04 18:02 34.07434 28.41891 37080 ft 487 kts 147°
2026-05-04 18:02 34.02036 28.46872 37086 ft 494 kts 147°
2026-05-04 18:03 33.96517 28.51949 37058 ft 502 kts 147°
2026-05-04 18:03 33.90961 28.57064 37082 ft 503 kts 147°
2026-05-04 18:04 33.85392 28.62177 37075 ft 503 kts 147°
2026-05-04 18:05 33.77047 28.69817 37082 ft 501 kts 148°
2026-05-04 18:05 33.71508 28.74934 37080 ft 503 kts 144°
2026-05-04 18:06 33.63773 28.83536 37066 ft 506 kts 141°
2026-05-04 18:06 33.58639 28.89312 37082 ft 506 kts 141°
2026-05-04 18:07 33.53499 28.95068 37074 ft 506 kts 141°
2026-05-04 18:07 33.48357 29.00812 37084 ft 505 kts 142°
2026-05-04 18:08 33.43223 29.06544 37083 ft 505 kts 142°
2026-05-04 18:08 33.38075 29.12278 37087 ft 505 kts 142°
2026-05-04 18:09 33.27785 29.23713 37074 ft 504 kts 142°
2026-05-04 18:10 33.22647 29.29405 37085 ft 503 kts 142°
2026-05-04 18:10 33.17512 29.35081 37085 ft 503 kts 142°
2026-05-04 18:11 33.12374 29.40751 37086 ft 503 kts 142°
2026-05-04 18:11 33.07399 29.46662 37085 ft 507 kts 136°
2026-05-04 18:12 33.02311 29.52375 37085 ft 500 kts 147°
2026-05-04 18:12 32.96991 29.57713 37071 ft 501 kts 144°
2026-05-04 18:13 32.91837 29.63309 37086 ft 502 kts 143°
2026-05-04 18:14 32.84140 29.71755 37083 ft 501 kts 143°
2026-05-04 18:14 32.79007 29.77361 37086 ft 501 kts 143°
2026-05-04 18:15 32.68746 29.88540 37091 ft 500 kts 143°
2026-05-04 18:16 32.63653 29.94074 37083 ft 499 kts 144°
2026-05-04 18:16 32.58536 29.99626 37094 ft 499 kts 144°
2026-05-04 18:17 32.50849 30.07949 37092 ft 499 kts 144°
2026-05-04 18:18 32.43178 30.16264 37095 ft 497 kts 144°
2026-05-04 18:18 32.38077 30.21785 37092 ft 497 kts 144°
2026-05-04 18:19 32.30425 30.30010 37089 ft 494 kts 144°
2026-05-04 18:19 32.25331 30.35469 37098 ft 494 kts 144°
2026-05-04 18:20 32.20233 30.40929 37089 ft 494 kts 144°
2026-05-04 18:20 32.15161 30.46350 37093 ft 492 kts 144°
2026-05-04 18:21 32.10086 30.51765 37093 ft 492 kts 144°
2026-05-04 18:21 32.05014 30.57172 37106 ft 490 kts 144°
2026-05-04 18:22 32.02495 30.59857 36938 ft 484 kts 144°
2026-05-04 18:22 32.00005 30.62507 36351 ft 482 kts 144°
2026-05-04 18:22 31.97515 30.65151 35677 ft 482 kts 144°
2026-05-04 18:22 31.95027 30.67790 35019 ft 481 kts 144°
2026-05-04 18:23 31.92538 30.70427 34354 ft 482 kts 144°
2026-05-04 18:23 31.90045 30.73068 33574 ft 483 kts 144°
2026-05-04 18:23 31.87535 30.75725 32783 ft 486 kts 144°
2026-05-04 18:23 31.85016 30.78389 32017 ft 489 kts 144°
2026-05-04 18:24 31.82485 30.81065 31299 ft 490 kts 144°
2026-05-04 18:24 31.79912 30.83785 30645 ft 490 kts 144°
2026-05-04 18:24 31.77410 30.86428 30023 ft 489 kts 144°
2026-05-04 18:24 31.74882 30.89096 29317 ft 488 kts 144°
2026-05-04 18:25 31.72356 30.91759 28665 ft 487 kts 144°
2026-05-04 18:25 31.69841 30.94409 28023 ft 484 kts 144°
2026-05-04 18:25 31.67343 30.97039 27380 ft 480 kts 144°
2026-05-04 18:25 31.64865 30.99646 26761 ft 478 kts 144°
2026-05-04 18:26 31.62391 31.02247 26137 ft 476 kts 144°
2026-05-04 18:26 31.59938 31.04822 25539 ft 474 kts 144°
2026-05-04 18:26 31.57484 31.07397 24920 ft 472 kts 145°
2026-05-04 18:26 31.55036 31.09927 24292 ft 466 kts 147°
2026-05-04 18:27 31.52395 31.11996 23652 ft 447 kts 162°
2026-05-04 18:27 31.49548 31.13086 22989 ft 423 kts 178°
2026-05-04 18:27 31.46678 31.13595 22421 ft 413 kts 181°
2026-05-04 18:27 31.43854 31.14037 21833 ft 407 kts 181°
2026-05-04 18:28 31.41067 31.14504 21271 ft 403 kts 181°
2026-05-04 18:28 31.38310 31.14997 20705 ft 398 kts 180°
2026-05-04 18:28 31.35595 31.15501 20183 ft 395 kts 180°
2026-05-04 18:28 31.32885 31.16007 19685 ft 393 kts 180°
2026-05-04 18:29 31.30199 31.16509 19247 ft 390 kts 180°
2026-05-04 18:29 31.27524 31.17008 18950 ft 389 kts 179°
2026-05-04 18:29 31.25719 31.17346 18776 ft 388 kts 179°
2026-05-04 18:29 31.23063 31.17843 18537 ft 387 kts 179°
2026-05-04 18:30 31.17764 31.18828 18019 ft 384 kts 179°
2026-05-04 18:30 31.15128 31.19318 17729 ft 382 kts 179°
2026-05-04 18:30 31.12515 31.19804 17472 ft 379 kts 179°
2026-05-04 18:31 31.09916 31.20287 17213 ft 378 kts 179°
2026-05-04 18:31 31.07321 31.20768 16949 ft 376 kts 179°
2026-05-04 18:31 31.04736 31.21248 16694 ft 375 kts 179°
2026-05-04 18:31 31.02160 31.21727 16442 ft 374 kts 179°
2026-05-04 18:32 30.99592 31.22203 16192 ft 373 kts 179°
2026-05-04 18:32 30.97036 31.22678 15942 ft 372 kts 179°
2026-05-04 18:32 30.94483 31.23151 15697 ft 371 kts 179°
2026-05-04 18:32 30.91939 31.23624 15451 ft 370 kts 178°
2026-05-04 18:33 30.89407 31.24095 15190 ft 369 kts 178°
2026-05-04 18:33 30.86871 31.24422 14939 ft 364 kts 183°
2026-05-04 18:33 30.84354 31.24596 14701 ft 363 kts 184°
2026-05-04 18:33 30.81826 31.24736 14462 ft 362 kts 185°
2026-05-04 18:34 30.79313 31.24862 14230 ft 362 kts 185°
2026-05-04 18:34 30.76801 31.24981 14003 ft 361 kts 185°
2026-05-04 18:34 30.74292 31.25095 13776 ft 361 kts 185°
2026-05-04 18:34 30.71782 31.25202 13537 ft 361 kts 185°
2026-05-04 18:35 30.69277 31.25305 13309 ft 360 kts 185°
2026-05-04 18:35 30.66769 31.25404 13067 ft 360 kts 185°
2026-05-04 18:35 30.64269 31.25498 12797 ft 360 kts 185°
2026-05-04 18:35 30.61765 31.25583 12584 ft 360 kts 185°
2026-05-04 18:36 30.59266 31.25663 12358 ft 359 kts 185°
2026-05-04 18:36 30.56761 31.25739 12130 ft 360 kts 185°
2026-05-04 18:36 30.54255 31.25811 11906 ft 360 kts 185°
2026-05-04 18:36 30.51752 31.25880 11684 ft 360 kts 185°
2026-05-04 18:37 30.49249 31.25945 11460 ft 360 kts 185°
2026-05-04 18:37 30.46746 31.26003 11232 ft 359 kts 185°
2026-05-04 18:37 30.44293 31.26061 10959 ft 347 kts 185°
2026-05-04 18:37 30.41916 31.26071 10661 ft 335 kts 189°
2026-05-04 18:38 30.39644 31.25756 10325 ft 322 kts 197°
2026-05-04 18:38 30.37529 31.25076 10018 ft 311 kts 203°
2026-05-04 18:38 30.35498 31.24294 9667 ft 304 kts 205°
2026-05-04 18:38 30.33512 31.23515 9337 ft 299 kts 205°
2026-05-04 18:39 30.31558 31.22747 9021 ft 293 kts 205°
2026-05-04 18:39 30.29641 31.21992 8678 ft 289 kts 205°
2026-05-04 18:39 30.27749 31.21239 8324 ft 286 kts 205°
2026-05-04 18:39 30.25881 31.20491 7974 ft 283 kts 205°
2026-05-04 18:40 30.24034 31.19743 7623 ft 280 kts 205°
2026-05-04 18:40 30.22203 31.18996 7283 ft 277 kts 205°
2026-05-04 18:40 30.20400 31.18256 6945 ft 274 kts 205°
2026-05-04 18:40 30.18609 31.17515 6598 ft 273 kts 204°
2026-05-04 18:41 30.16826 31.16765 6242 ft 272 kts 204°
2026-05-04 18:41 30.15048 31.16007 5881 ft 271 kts 204°
2026-05-04 18:41 30.13285 31.15242 5527 ft 271 kts 205°
2026-05-04 18:41 30.11522 31.14466 5184 ft 270 kts 205°
2026-05-04 18:42 30.09773 31.13685 4874 ft 270 kts 205°
2026-05-04 18:42 30.08023 31.12900 4559 ft 269 kts 204°
2026-05-04 18:42 30.06271 31.12137 4245 ft 270 kts 199°
2026-05-04 18:42 30.04391 31.12004 3949 ft 276 kts 173°
2026-05-04 18:43 30.02604 31.12787 3689 ft 278 kts 150°
2026-05-04 18:43 30.01003 31.14033 3447 ft 277 kts 145°
2026-05-04 18:43 29.99449 31.15344 3189 ft 277 kts 141°
2026-05-04 18:43 29.98259 31.17074 2919 ft 277 kts 114°
2026-05-04 18:44 29.97654 31.19170 2677 ft 276 kts 100°
2026-05-04 18:44 29.97518 31.20600 2520 ft 267 kts 86°
2026-05-04 18:44 29.97921 31.23265 2471 ft 240 kts 63°
2026-05-04 18:44 29.98704 31.24871 2471 ft 220 kts 49°
2026-05-04 18:45 29.99684 31.26154 2476 ft 208 kts 39°
2026-05-04 18:45 30.00606 31.27353 2469 ft 193 kts 43°
2026-05-04 18:45 30.01491 31.28519 2488 ft 192 kts 44°
2026-05-04 18:45 30.02365 31.29682 2496 ft 194 kts 44°
2026-05-04 18:46 30.03250 31.30862 2407 ft 191 kts 44°
2026-05-04 18:46 30.04066 31.31953 2239 ft 168 kts 43°
2026-05-04 18:46 30.04761 31.32883 2015 ft 137 kts 41°
2026-05-04 18:46 30.05362 31.33680 1790 ft 130 kts 41°
2026-05-04 18:47 30.05952 31.34465 1604 ft 130 kts 41°
2026-05-04 18:47 30.06544 31.35256 1425 ft 130 kts 41°
2026-05-04 18:47 30.07128 31.36035 1257 ft 128 kts 41°
2026-05-04 18:47 30.07714 31.36817 1082 ft 129 kts 41°
2026-05-04 18:48 30.08302 31.37601 880 ft 130 kts 42°
2026-05-04 18:48 30.08897 31.38406 735 ft 133 kts 43°
2026-05-04 18:48 30.09495 31.39205 590 ft 130 kts 44°
2026-05-04 18:48 30.10087 31.39998 413 ft 130 kts 42°
2026-05-04 18:49 30.10606 31.40678 391 ft 88 kts 48°
2026-05-04 18:49 30.10880 31.41045 390 ft 32 kts 50°
2026-05-04 18:49 30.11014 31.41224 393 ft 30 kts 49°
2026-05-04 18:49 30.11157 31.41412 394 ft 32 kts 48°
2026-05-04 18:50 30.11334 31.41564 394 ft 31 kts 23°
2026-05-04 18:50 30.11448 31.41612 392 ft 17 kts 19°
2026-05-04 18:50 30.11468 31.41620 392 ft 2 kts 19°
2026-05-04 18:50 30.11493 31.41627 391 ft 5 kts
2026-05-04 18:51 30.11506 31.41627 394 ft 1 kts 356°
2026-05-04 18:51 30.11522 31.41624 390 ft 4 kts 348°
2026-05-04 18:51 30.11538 31.41619 392 ft 1 kts 342°
2026-05-04 18:51 30.11554 31.41611 394 ft 4 kts 328°
2026-05-04 18:52 30.11565 31.41568 391 ft 8 kts 255°
2026-05-04 18:52 30.11505 31.41483 394 ft 16 kts 229°
2026-05-04 18:52 30.11428 31.41380 394 ft 18 kts 229°
2026-05-04 18:52 30.11340 31.41263 394 ft 20 kts 229°
2026-05-04 18:53 30.11243 31.41134 394 ft 22 kts 228°
2026-05-04 18:53 30.11139 31.40996 392 ft 22 kts 229°
2026-05-04 18:53 30.11073 31.40908 394 ft 10 kts 229°
2026-05-04 18:53 30.11050 31.40835 394 ft 12 kts 300°
2026-05-04 18:54 30.11058 31.40728 385 ft 19 kts 230°
2026-05-04 18:54 30.10966 31.40604 384 ft 21 kts 231°
2026-05-04 18:54 30.10869 31.40476 385 ft 22 kts 229°
2026-05-04 18:54 30.10765 31.40338 388 ft 23 kts 229°
2026-05-04 18:55 30.10654 31.40192 389 ft 24 kts 229°
2026-05-04 18:55 30.10477 31.39899 384 ft 22 kts 290°
2026-05-04 18:55 30.10608 31.39825 376 ft 22 kts 346°
2026-05-04 18:56 30.10753 31.39781 375 ft 19 kts 346°
2026-05-04 18:56 30.10813 31.39732 375 ft 10 kts 267°
2026-05-04 18:56 30.10802 31.39674 375 ft 4 kts 255°
2026-05-04 18:56 30.10800 31.39668 375 ft 0 kts 255°